| time (UTC) | temp F | wind direction | speed MPH | gust MPH | rain 1hr in | rain 24hr in | rain mn in | humidity % | barometer mb |
| 20260904205920 | 68 | 254 | 3.0 | 5.0 | 0.00 | 0.01 | 0.01 | 61 | 1016.2 |
| 20260904205415 | 68 | 227 | 4.0 | 8.0 | 0.00 | 0.01 | 0.01 | 61 | 1016.2 |
| 20260904204912 | 67 | 211 | 4.0 | 6.0 | 0.00 | 0.01 | 0.01 | 65 | 1016.3 |
| 20260904204408 | 67 | 223 | 4.0 | 6.0 | 0.00 | 0.01 | 0.01 | 64 | 1016.3 |
| 20260904203904 | 67 | 227 | 4.0 | 7.0 | 0.00 | 0.01 | 0.01 | 63 | 1016.1 |
| 20260904203400 | 67 | 188 | 3.0 | 5.0 | 0.00 | 0.01 | 0.01 | 65 | 1016.2 |
| 20260904202856 | 66 | 186 | 2.0 | 5.0 | 0.00 | 0.01 | 0.01 | 66 | 1016.2 |
| 20260904202352 | 67 | 195 | 5.0 | 8.0 | 0.00 | 0.01 | 0.01 | 63 | 1016.3 |
| 20260904201847 | 67 | 215 | 3.0 | 6.0 | 0.00 | 0.01 | 0.01 | 63 | 1016.2 |
| 20260904201342 | 66 | 160 | 0.0 | 6.0 | 0.00 | 0.01 | 0.01 | 66 | 1016.4 |
| 20260904200837 | 66 | 200 | 3.0 | 5.0 | 0.00 | 0.01 | 0.01 | 67 | 1016.3 |
| 20260904200335 | 65 | 213 | 3.0 | 5.0 | 0.00 | 0.01 | 0.01 | 68 | 1016.5 |
| 20260904195830 | 64 | 206 | 3.0 | 5.0 | 0.00 | 0.01 | 0.01 | 68 | 1016.5 |
| 20260904195329 | 65 | 215 | 3.0 | 3.0 | 0.00 | 0.01 | 0.01 | 69 | 1016.5 |
| 20260904194829 | 65 | 165 | 3.0 | 6.0 | 0.00 | 0.01 | 0.01 | 69 | 1016.4 |
| 20260904194328 | 65 | 210 | 3.0 | 7.0 | 0.00 | 0.01 | 0.01 | 68 | 1016.3 |
| 20260904193823 | 65 | 215 | 2.0 | 7.0 | 0.00 | 0.01 | 0.01 | 69 | 1016.4 |
| 20260904193319 | 64 | 224 | 3.0 | 6.0 | 0.00 | 0.01 | 0.01 | 71 | 1016.3 |
| 20260904192814 | 64 | 230 | 4.0 | 6.0 | 0.00 | 0.01 | 0.01 | 71 | 1016.3 |
| 20260904192309 | 64 | 169 | 6.0 | 8.0 | 0.00 | 0.01 | 0.01 | 72 | 1016.3 |
| 20260904191806 | 64 | 224 | 5.0 | 6.0 | 0.00 | 0.01 | 0.01 | 72 | 1016.5 |
| 20260904191302 | 63 | 178 | 4.0 | 6.0 | 0.00 | 0.01 | 0.01 | 74 | 1016.3 |
| 20260904190758 | 64 | 250 | 5.0 | 6.0 | 0.00 | 0.01 | 0.01 | 73 | 1016.3 |
| 20260904190254 | 64 | 225 | 5.0 | 10.0 | 0.00 | 0.01 | 0.01 | 73 | 1016.7 |
| 20260904185750 | 63 | 200 | 2.0 | 5.0 | 0.00 | 0.01 | 0.01 | 74 | 1016.6 |
| 20260904185245 | 64 | 180 | 4.0 | 7.0 | 0.00 | 0.01 | 0.01 | 73 | 1016.4 |
| 20260904184743 | 63 | 162 | 1.0 | 5.0 | 0.00 | 0.01 | 0.01 | 74 | 1016.6 |
| 20260904184240 | 63 | 178 | 4.0 | 7.0 | 0.00 | 0.01 | 0.01 | 74 | 1016.4 |
| 20260904183735 | 63 | 188 | 3.0 | 10.0 | 0.00 | 0.01 | 0.01 | 73 | 1016.5 |
| 20260904183230 | 62 | 136 | 4.0 | 7.0 | 0.00 | 0.01 | 0.01 | 75 | 1016.5 |
| 20260904182725 | 62 | 147 | 2.0 | 7.0 | 0.00 | 0.01 | 0.01 | 77 | 1016.5 |
| 20260904182220 | 62 | 196 | 3.0 | 7.0 | 0.00 | 0.01 | 0.01 | 77 | 1016.6 |
| 20260904181716 | 62 | 215 | 5.0 | 5.0 | 0.00 | 0.01 | 0.01 | 76 | 1016.6 |
| 20260904181216 | 62 | 199 | 7.0 | 10.0 | 0.00 | 0.01 | 0.01 | 77 | 1016.7 |
| 20260904180712 | 64 | 158 | 4.0 | 6.0 | 0.00 | 0.01 | 0.01 | 74 | 1016.6 |
| 20260904180207 | 63 | 186 | 3.0 | 8.0 | 0.00 | 0.01 | 0.01 | 77 | 1016.6 |
| 20260904175706 | 63 | 88 | 1.0 | 5.0 | 0.00 | 0.01 | 0.01 | 77 | 1016.7 |
| 20260904175205 | 63 | 160 | 3.0 | 5.0 | 0.00 | 0.01 | 0.01 | 78 | 1016.5 |
| 20260904174705 | 62 | 208 | 3.0 | 5.0 | 0.00 | 0.01 | 0.01 | 79 | 1016.5 |
| 20260904174201 | 62 | 269 | 5.0 | 7.0 | 0.00 | 0.01 | 0.01 | 80 | 1016.5 |
| 20260904173656 | 61 | 225 | 3.0 | 5.0 | 0.00 | 0.01 | 0.01 | 82 | 1016.6 |
| 20260904173151 | 61 | 169 | 2.0 | 3.0 | 0.00 | 0.01 | 0.01 | 82 | 1016.7 |
| 20260904172648 | 61 | 158 | 0.0 | 3.0 | 0.00 | 0.01 | 0.01 | 83 | 1016.4 |
| 20260904172147 | 60 | 158 | 0.0 | 2.0 | 0.00 | 0.01 | 0.01 | 86 | 1016.6 |
| 20260904171642 | 60 | 203 | 3.0 | 3.0 | 0.00 | 0.01 | 0.01 | 85 | 1016.6 |
| 20260904171137 | 60 | 195 | 4.0 | 5.0 | 0.00 | 0.01 | 0.01 | 85 | 1016.4 |
| 20260904170633 | 60 | 157 | 1.0 | 5.0 | 0.00 | 0.01 | 0.01 | 86 | 1016.6 |
| 20260904170129 | 59 | 158 | 1.0 | 3.0 | 0.00 | 0.01 | 0.01 | 88 | 1016.8 |
| 20260904165628 | 59 | 147 | 2.0 | 3.0 | 0.00 | 0.01 | 0.01 | 89 | 1016.5 |
| 20260904165127 | 59 | 208 | 2.0 | 2.0 | 0.00 | 0.01 | 0.01 | 88 | 1016.7 |
| 20260904164627 | 59 | 160 | 1.0 | 2.0 | 0.00 | 0.01 | 0.01 | 89 | 1016.5 |
| 20260904164123 | 59 | 188 | 1.0 | 3.0 | 0.00 | 0.01 | 0.01 | 89 | 1016.6 |
| 20260904163619 | 59 | 169 | 1.0 | 5.0 | 0.00 | 0.01 | 0.01 | 91 | 1016.4 |
| 20260904163114 | 59 | 176 | 2.0 | 2.0 | 0.00 | 0.01 | 0.01 | 91 | 1016.5 |
| 20260904162613 | 59 | 162 | 2.0 | 3.0 | 0.00 | 0.01 | 0.01 | 93 | 1016.4 |
| 20260904162109 | 59 | 168 | 1.0 | 2.0 | 0.00 | 0.01 | 0.01 | 94 | 1016.2 |
| 20260904161604 | 58 | 175 | 0.0 | 0.0 | 0.00 | 0.01 | 0.01 | 96 | 1016.4 |
| 20260904161059 | 57 | 159 | 0.0 | 0.0 | 0.00 | 0.01 | 0.01 | 97 | 1016.3 |
| 20260904160554 | 57 | 166 | 0.0 | 0.0 | 0.00 | 0.01 | 0.01 | 97 | 1016.2 |
| 20260904160050 | 56 | 153 | 0.0 | 0.0 | 0.00 | 0.01 | 0.01 | 97 | 1016.4 |
| 20260904155549 | 56 | 136 | 0.0 | 1.0 | 0.00 | 0.01 | 0.01 | 97 | 1016.3 |
| 20260904155044 | 57 | 113 | 0.0 | 0.0 | 0.00 | 0.01 | 0.01 | 97 | 1016.2 |
| 20260904154537 | 56 | 135 | 0.0 | 0.0 | 0.00 | 0.01 | 0.01 | 98 | 1016.1 |
| 20260904154032 | 56 | 133 | 0.0 | 0.0 | 0.00 | 0.01 | 0.01 | 97 | 1016.3 |
| 20260904153532 | 56 | 158 | 0.0 | 0.0 | 0.00 | 0.01 | 0.01 | 97 | 1016.3 |
| 20260904153029 | 56 | 156 | 0.0 | 0.0 | 0.00 | 0.01 | 0.01 | 98 | 1016.2 |
| 20260904152524 | 56 | 154 | 0.0 | 0.0 | 0.00 | 0.01 | 0.01 | 98 | 1016.0 |
| 20260904152019 | 56 | 153 | 0.0 | 0.0 | 0.00 | 0.01 | 0.01 | 98 | 1016.0 |
| 20260904151514 | 55 | 156 | 0.0 | 0.0 | 0.00 | 0.01 | 0.01 | 98 | 1016.0 |
| 20260904151008 | 55 | 154 | 0.0 | 0.0 | 0.00 | 0.01 | 0.01 | 98 | 1015.9 |
| 20260904150503 | 55 | 157 | 0.0 | 0.0 | 0.00 | 0.01 | 0.01 | 98 | 1015.7 |
| 20260904150002 | 54 | 154 | 0.0 | 0.0 | 0.00 | 0.01 | 0.01 | 98 | 1015.6 |
| 20260904145457 | 54 | 155 | 0.0 | 0.0 | 0.00 | 0.01 | 0.01 | 98 | 1015.9 |
| 20260904144953 | 54 | 154 | 0.0 | 0.0 | 0.00 | 0.01 | 0.01 | 98 | 1015.7 |
| 20260904144448 | 54 | 154 | 0.0 | 0.0 | 0.00 | 0.01 | 0.01 | 98 | 1015.7 |
| 20260904143944 | 54 | 154 | 0.0 | 0.0 | 0.00 | 0.01 | 0.01 | 98 | 1015.5 |
| 20260904143440 | 54 | 153 | 0.0 | 0.0 | 0.00 | 0.01 | 0.01 | 98 | 1015.6 |
| 20260904142937 | 54 | 152 | 0.0 | 0.0 | 0.00 | 0.01 | 0.01 | 98 | 1015.6 |
| 20260904142433 | 53 | 146 | 0.0 | 0.0 | 0.00 | 0.01 | 0.01 | 98 | 1015.7 |
| 20260904141927 | 53 | 148 | 0.0 | 0.0 | 0.00 | 0.01 | 0.01 | 98 | 1015.7 |
| 20260904141422 | 53 | 147 | 0.0 | 0.0 | 0.00 | 0.01 | 0.01 | 98 | 1015.6 |
| 20260904140919 | 53 | 148 | 0.0 | 0.0 | 0.00 | 0.01 | 0.01 | 98 | 1015.5 |
| 20260904140419 | 53 | 143 | 0.0 | 0.0 | 0.00 | 0.01 | 0.01 | 98 | 1015.5 |
| 20260904135918 | 53 | 151 | 0.0 | 0.0 | 0.00 | 0.01 | 0.01 | 98 | 1015.4 |
| 20260904135418 | 53 | 153 | 0.0 | 0.0 | 0.00 | 0.01 | 0.01 | 98 | 1015.2 |
| 20260904134914 | 53 | 151 | 0.0 | 0.0 | 0.07 | 0.01 | 0.01 | 98 | 1015.1 |
| 20260904134413 | 53 | 154 | 0.0 | 0.0 | 0.00 | 0.00 | 0.00 | 97 | 1015.1 |
| 20260904133909 | 53 | 151 | 0.0 | 0.0 | 0.00 | 0.00 | 0.00 | 97 | 1015.2 |
| 20260904133403 | 53 | 152 | 0.0 | 0.0 | 0.00 | 0.00 | 0.00 | 97 | 1014.9 |
| 20260904132858 | 53 | 152 | 0.0 | 0.0 | 0.00 | 0.00 | 0.00 | 97 | 1014.9 |
| 20260904132359 | 53 | 152 | 0.0 | 0.0 | 0.00 | 0.00 | 0.00 | 97 | 1015.0 |
| 20260904131858 | 53 | 146 | 0.0 | 0.0 | 0.00 | 0.00 | 0.00 | 97 | 1015.1 |
| 20260904131354 | 53 | 151 | 0.0 | 0.0 | 0.00 | 0.00 | 0.00 | 97 | 1015.1 |
| 20260904130849 | 53 | 152 | 0.0 | 0.0 | 0.00 | 0.00 | 0.00 | 97 | 1015.0 |
| 20260904130348 | 53 | 152 | 0.0 | 0.0 | 0.00 | 0.00 | 0.00 | 97 | 1014.9 |
| 20260904125843 | 53 | 152 | 0.0 | 0.0 | 0.00 | 0.00 | 0.00 | 97 | 1014.9 |
| 20260904125340 | 53 | 152 | 0.0 | 0.0 | 0.00 | 0.00 | 0.00 | 97 | 1014.9 |
| 20260904124838 | 53 | 153 | 0.0 | 0.0 | 0.00 | 0.00 | 0.00 | 97 | 1014.8 |
| 20260904124335 | 52 | 152 | 0.0 | 0.0 | 0.00 | 0.00 | 0.00 | 97 | 1014.9 |
| 20260904123831 | 52 | 149 | 0.0 | 0.0 | 0.00 | 0.00 | 0.00 | 97 | 1014.6 |
| 20260904123326 | 52 | 154 | 0.0 | 0.0 | 0.00 | 0.00 | 0.00 | 97 | 1014.7 |
| 20260904122821 | 52 | 151 | 0.0 | 0.0 | 0.00 | 0.00 | 0.00 | 97 | 1014.8 |
| 20260904122320 | 52 | 153 | 0.0 | 0.0 | 0.00 | 0.00 | 0.00 | 97 | 1014.6 |
| 20260904121815 | 52 | 155 | 0.0 | 0.0 | 0.00 | 0.00 | 0.00 | 97 | 1014.5 |
| 20260904121312 | 52 | 157 | 0.0 | 0.0 | 0.00 | 0.00 | 0.00 | 97 | 1014.4 |
| 20260904120808 | 52 | 155 | 0.0 | 0.0 | 0.00 | 0.00 | 0.00 | 97 | 1014.5 |
| 20260904120258 | 52 | 152 | 0.0 | 0.0 | 0.00 | 0.00 | 0.00 | 97 | 1014.4 |
| 20260904115753 | 52 | 142 | 0.0 | 0.0 | 0.00 | 0.00 | 0.00 | 97 | 1014.7 |
| 20260904115248 | 53 | 156 | 0.0 | 0.0 | 0.00 | 0.00 | 0.00 | 97 | 1014.2 |
| 20260904114742 | 52 | 154 | 0.0 | 0.0 | 0.00 | 0.00 | 0.00 | 97 | 1014.4 |
| 20260904114242 | 53 | 157 | 0.0 | 0.0 | 0.00 | 0.00 | 0.00 | 97 | 1014.4 |
| 20260904113737 | 53 | 154 | 0.0 | 0.0 | 0.00 | 0.00 | 0.00 | 97 | 1014.3 |
| 20260904113236 | 53 | 148 | 0.0 | 0.0 | 0.00 | 0.00 | 0.00 | 97 | 1014.3 |
| 20260904112731 | 53 | 153 | 0.0 | 0.0 | 0.00 | 0.00 | 0.00 | 97 | 1014.3 |
| 20260904112227 | 53 | 153 | 0.0 | 0.0 | 0.00 | 0.00 | 0.00 | 97 | 1014.2 |
| 20260904111722 | 53 | 143 | 0.0 | 0.0 | 0.00 | 0.00 | 0.00 | 97 | 1014.4 |
| 20260904111218 | 53 | 151 | 0.0 | 0.0 | 0.00 | 0.00 | 0.00 | 97 | 1014.2 |
| 20260904110713 | 53 | 153 | 0.0 | 0.0 | 0.00 | 0.00 | 0.00 | 97 | 1014.3 |
| 20260904110212 | 53 | 152 | 0.0 | 0.0 | 0.00 | 0.00 | 0.00 | 97 | 1014.2 |
| 20260904105708 | 53 | 157 | 0.0 | 0.0 | 0.00 | 0.00 | 0.00 | 97 | 1014.1 |
| 20260904105202 | 53 | 153 | 0.0 | 0.0 | 0.00 | 0.00 | 0.00 | 97 | 1014.1 |
| 20260904104658 | 53 | 153 | 0.0 | 0.0 | 0.00 | 0.00 | 0.00 | 97 | 1014.1 |
| 20260904104153 | 53 | 149 | 0.0 | 0.0 | 0.00 | 0.00 | 0.00 | 97 | 1014.0 |
| 20260904103650 | 53 | 154 | 0.0 | 0.0 | 0.00 | 0.00 | 0.00 | 97 | 1014.2 |
| 20260904103145 | 53 | 157 | 0.0 | 0.0 | 0.00 | 0.00 | 0.00 | 97 | 1014.3 |
| 20260904102641 | 53 | 151 | 0.0 | 0.0 | 0.00 | 0.00 | 0.00 | 97 | 1014.2 |
| 20260904102135 | 53 | 140 | 0.0 | 0.0 | 0.00 | 0.00 | 0.00 | 97 | 1013.8 |
| 20260904101632 | 53 | 142 | 0.0 | 0.0 | 0.00 | 0.00 | 0.00 | 97 | 1013.8 |
| 20260904101128 | 53 | 157 | 0.0 | 0.0 | 0.00 | 0.00 | 0.00 | 97 | 1013.9 |
| 20260904100624 | 53 | 154 | 0.0 | 0.0 | 0.00 | 0.00 | 0.00 | 97 | 1013.6 |
| 20260904100118 | 53 | 154 | 0.0 | 0.0 | 0.00 | 0.00 | 0.00 | 97 | 1013.7 |
| 20260904095613 | 53 | 156 | 0.0 | 0.0 | 0.00 | 0.00 | 0.00 | 97 | 1013.8 |
| 20260904095108 | 53 | 155 | 0.0 | 0.0 | 0.00 | 0.00 | 0.00 | 97 | 1013.9 |
| 20260904094608 | 53 | 152 | 0.0 | 0.0 | 0.00 | 0.00 | 0.00 | 97 | 1013.7 |
| 20260904094103 | 53 | 152 | 0.0 | 0.0 | 0.00 | 0.00 | 0.00 | 97 | 1013.8 |
| 20260904093600 | 53 | 152 | 0.0 | 0.0 | 0.00 | 0.00 | 0.00 | 97 | 1013.7 |
| 20260904093054 | 53 | 148 | 0.0 | 0.0 | 0.00 | 0.00 | 0.00 | 97 | 1013.7 |
| 20260904092550 | 53 | 148 | 0.0 | 0.0 | 0.00 | 0.00 | 0.00 | 97 | 1013.7 |
| 20260904092047 | 53 | 148 | 0.0 | 0.0 | 0.00 | 0.00 | 0.00 | 97 | 1013.8 |
| 20260904091543 | 53 | 137 | 0.0 | 0.0 | 0.00 | 0.00 | 0.00 | 97 | 1013.8 |
| 20260904091042 | 53 | 147 | 0.0 | 0.0 | 0.00 | 0.00 | 0.00 | 96 | 1014.0 |
| 20260904090537 | 53 | 149 | 0.0 | 0.0 | 0.00 | 0.00 | 0.00 | 96 | 1013.8 |
| 20260904090033 | 53 | 157 | 0.0 | 0.0 | 0.00 | 0.00 | 0.00 | 96 | 1013.7 |
| 20260904085528 | 53 | 155 | 0.0 | 0.0 | 0.00 | 0.00 | 0.00 | 96 | 1013.9 |
| 20260904085028 | 53 | 152 | 0.0 | 0.0 | 0.00 | 0.00 | 0.00 | 96 | 1013.9 |
| 20260904084524 | 53 | 155 | 0.0 | 0.0 | 0.00 | 0.00 | 0.00 | 96 | 1014.1 |
| 20260904084020 | 54 | 152 | 0.0 | 0.0 | 0.00 | 0.00 | 0.00 | 96 | 1013.9 |
| 20260904083516 | 54 | 152 | 0.0 | 0.0 | 0.00 | 0.00 | 0.00 | 96 | 1013.7 |
| 20260904083011 | 54 | 151 | 0.0 | 0.0 | 0.00 | 0.00 | 0.00 | 96 | 1013.7 |
| 20260904082506 | 54 | 145 | 0.0 | 0.0 | 0.00 | 0.00 | 0.00 | 96 | 1013.7 |
| 20260904082002 | 54 | 151 | 0.0 | 0.0 | 0.00 | 0.00 | 0.00 | 96 | 1013.6 |
| 20260904081457 | 54 | 160 | 0.0 | 0.0 | 0.00 | 0.00 | 0.00 | 96 | 1013.7 |
| 20260904080952 | 54 | 157 | 0.0 | 0.0 | 0.00 | 0.00 | 0.00 | 96 | 1013.6 |
| 20260904080448 | 54 | 149 | 0.0 | 0.0 | 0.00 | 0.00 | 0.00 | 96 | 1013.7 |
| 20260904075943 | 54 | 144 | 0.0 | 0.0 | 0.00 | 0.00 | 0.00 | 96 | 1013.7 |
| 20260904075439 | 55 | 154 | 0.0 | 0.0 | 0.00 | 0.00 | 0.00 | 96 | 1013.4 |
| 20260904074938 | 55 | 157 | 0.0 | 0.0 | 0.00 | 0.00 | 0.00 | 96 | 1013.7 |
| 20260904074434 | 55 | 155 | 0.0 | 0.0 | 0.00 | 0.00 | 0.00 | 96 | 1013.9 |
| 20260904073928 | 55 | 156 | 0.0 | 0.0 | 0.00 | 0.00 | 0.00 | 96 | 1013.8 |
| 20260904073424 | 55 | 152 | 0.0 | 0.0 | 0.00 | 0.00 | 0.00 | 96 | 1013.9 |
| 20260904072920 | 55 | 155 | 0.0 | 0.0 | 0.00 | 0.00 | 0.00 | 96 | 1013.9 |
| 20260904072415 | 55 | 154 | 0.0 | 0.0 | 0.00 | 0.00 | 0.00 | 96 | 1014.1 |
| 20260904071910 | 55 | 149 | 0.0 | 0.0 | 0.00 | 0.00 | 0.00 | 96 | 1013.9 |
| 20260904071406 | 55 | 122 | 0.0 | 0.0 | 0.00 | 0.00 | 0.00 | 96 | 1013.7 |
| 20260904070900 | 55 | 142 | 0.0 | 0.0 | 0.00 | 0.00 | 0.00 | 96 | 1014.0 |
| 20260904070359 | 55 | 145 | 0.0 | 0.0 | 0.05 | 0.00 | 0.00 | 96 | 1013.9 |
| 20260904065853 | 55 | 148 | 0.0 | 0.0 | 0.05 | 0.12 | 0.12 | 96 | 1013.9 |
| 20260904065350 | 55 | 135 | 0.0 | 0.0 | 0.00 | 0.11 | 0.11 | 96 | 1013.9 |
| 20260904064844 | 55 | 157 | 0.0 | 0.0 | 0.00 | 0.11 | 0.11 | 96 | 1013.7 |
| 20260904064340 | 55 | 149 | 0.0 | 0.0 | 0.00 | 0.11 | 0.11 | 96 | 1013.7 |
| 20260904063836 | 55 | 155 | 0.0 | 0.0 | 0.00 | 0.11 | 0.11 | 96 | 1013.8 |
| 20260904063332 | 55 | 139 | 0.0 | 0.0 | 0.00 | 0.11 | 0.11 | 96 | 1013.9 |
| 20260904062832 | 55 | 152 | 0.0 | 0.0 | 0.00 | 0.11 | 0.11 | 96 | 1013.7 |
| 20260904062328 | 55 | 138 | 0.0 | 0.0 | 0.00 | 0.11 | 0.11 | 96 | 1013.7 |
| 20260904061823 | 55 | 154 | 0.0 | 0.0 | 0.00 | 0.11 | 0.11 | 96 | 1013.8 |
| 20260904061320 | 55 | 143 | 0.0 | 0.0 | 0.00 | 0.11 | 0.11 | 96 | 1013.8 |
| 20260904060816 | 55 | 139 | 0.0 | 0.0 | 0.07 | 0.11 | 0.11 | 96 | 1013.7 |
| 20260904060312 | 55 | 156 | 1.0 | 1.0 | 0.07 | 0.11 | 0.11 | 96 | 1013.6 |
| 20260904055807 | 55 | 148 | 0.0 | 0.0 | 0.00 | 0.10 | 0.10 | 96 | 1013.8 |
| 20260904055306 | 55 | 151 | 0.0 | 0.0 | 0.00 | 0.10 | 0.10 | 96 | 1013.5 |
| 20260904054756 | 55 | 153 | 0.0 | 0.0 | 0.00 | 0.10 | 0.10 | 96 | 1013.6 |
| 20260904054253 | 55 | 153 | 0.0 | 0.0 | 0.00 | 0.10 | 0.10 | 96 | 1013.6 |
| 20260904053748 | 55 | 153 | 0.0 | 0.0 | 0.00 | 0.10 | 0.10 | 96 | 1013.7 |
| 20260904053242 | 55 | 152 | 0.0 | 0.0 | 0.00 | 0.10 | 0.10 | 96 | 1013.4 |
| 20260904052738 | 55 | 151 | 0.0 | 0.0 | 0.00 | 0.10 | 0.10 | 96 | 1013.5 |
| 20260904052234 | 55 | 147 | 0.0 | 0.0 | 0.00 | 0.10 | 0.10 | 96 | 1013.4 |
| 20260904051731 | 56 | 152 | 0.0 | 0.0 | 0.00 | 0.10 | 0.10 | 95 | 1013.6 |
| 20260904051225 | 56 | 146 | 0.0 | 0.0 | 0.00 | 0.10 | 0.10 | 95 | 1013.8 |
| 20260904050720 | 56 | 145 | 0.0 | 0.0 | 0.00 | 0.10 | 0.10 | 95 | 1013.6 |
| 20260904050217 | 56 | 155 | 0.0 | 0.0 | 0.00 | 0.10 | 0.10 | 95 | 1013.8 |
| 20260904045716 | 56 | 153 | 0.0 | 0.0 | 0.00 | 0.10 | 0.10 | 95 | 1013.5 |
| 20260904045211 | 56 | 137 | 0.0 | 1.0 | 0.00 | 0.10 | 0.10 | 95 | 1013.5 |
| 20260904044706 | 56 | 154 | 0.0 | 0.0 | 0.00 | 0.10 | 0.10 | 95 | 1013.6 |
| 20260904044203 | 56 | 140 | 0.0 | 1.0 | 0.00 | 0.10 | 0.10 | 95 | 1013.8 |
| 20260904043659 | 56 | 152 | 0.0 | 0.0 | 0.00 | 0.10 | 0.10 | 95 | 1013.6 |
| 20260904043154 | 56 | 140 | 0.0 | 1.0 | 0.00 | 0.10 | 0.10 | 95 | 1013.8 |
| 20260904042650 | 56 | 146 | 0.0 | 0.0 | 0.00 | 0.10 | 0.10 | 95 | 1013.7 |
| 20260904042146 | 56 | 144 | 0.0 | 0.0 | 0.00 | 0.10 | 0.10 | 95 | 1013.6 |
| 20260904041641 | 56 | 149 | 0.0 | 0.0 | 0.00 | 0.10 | 0.10 | 95 | 1013.7 |
| 20260904041137 | 56 | 149 | 0.0 | 0.0 | 0.00 | 0.10 | 0.10 | 95 | 1013.6 |
| 20260904040633 | 56 | 151 | 0.0 | 0.0 | 0.00 | 0.10 | 0.10 | 95 | 1013.6 |
| 20260904040129 | 56 | 145 | 0.0 | 0.0 | 0.00 | 0.10 | 0.10 | 95 | 1013.8 |
| 20260904035625 | 56 | 145 | 0.0 | 0.0 | 0.00 | 0.10 | 0.10 | 94 | 1013.5 |
| 20260904035124 | 56 | 145 | 0.0 | 0.0 | 0.00 | 0.10 | 0.10 | 94 | 1013.6 |
| 20260904034619 | 56 | 145 | 0.0 | 0.0 | 0.00 | 0.10 | 0.10 | 94 | 1013.7 |
| 20260904034114 | 56 | 145 | 0.0 | 0.0 | 0.00 | 0.10 | 0.10 | 94 | 1013.6 |
| 20260904033610 | 56 | 145 | 0.0 | 0.0 | 0.00 | 0.10 | 0.10 | 94 | 1013.2 |
| 20260904033108 | 56 | 141 | 0.0 | 0.0 | 0.00 | 0.10 | 0.10 | 94 | 1013.2 |
| 20260904032608 | 56 | 148 | 0.0 | 0.0 | 0.00 | 0.10 | 0.10 | 93 | 1013.2 |
| 20260904032106 | 56 | 148 | 0.0 | 0.0 | 0.00 | 0.10 | 0.10 | 93 | 1013.2 |
| 20260904031606 | 57 | 148 | 0.0 | 0.0 | 0.00 | 0.10 | 0.10 | 93 | 1013.1 |
| 20260904031102 | 57 | 152 | 0.0 | 0.0 | 0.00 | 0.10 | 0.10 | 93 | 1013.2 |
| 20260904030558 | 57 | 152 | 0.0 | 0.0 | 0.00 | 0.10 | 0.10 | 93 | 1013.2 |
| 20260904030053 | 57 | 152 | 0.0 | 0.0 | 0.00 | 0.10 | 0.10 | 92 | 1013.0 |
| 20260904025548 | 57 | 152 | 0.0 | 0.0 | 0.00 | 0.10 | 0.10 | 92 | 1013.0 |
| 20260904025043 | 58 | 154 | 0.0 | 0.0 | 0.00 | 0.10 | 0.10 | 92 | 1012.9 |
| 20260904024539 | 58 | 153 | 0.0 | 0.0 | 0.00 | 0.10 | 0.10 | 92 | 1013.0 |
| 20260904024035 | 58 | 142 | 0.0 | 0.0 | 0.00 | 0.10 | 0.10 | 91 | 1013.0 |
| 20260904023531 | 58 | 159 | 0.0 | 0.0 | 0.00 | 0.10 | 0.10 | 91 | 1013.2 |
| 20260904023027 | 58 | 157 | 0.0 | 0.0 | 0.05 | 0.10 | 0.10 | 90 | 1013.0 |
| 20260904022526 | 58 | 157 | 0.0 | 0.0 | 0.05 | 0.10 | 0.10 | 90 | 1013.0 |
| 20260904022024 | 58 | 144 | 0.0 | 1.0 | 0.00 | 0.09 | 0.09 | 89 | 1013.0 |
| 20260904021519 | 59 | 139 | 0.0 | 0.0 | 0.00 | 0.09 | 0.09 | 89 | 1012.9 |
| 20260904021014 | 59 | 159 | 0.0 | 0.0 | 0.00 | 0.09 | 0.09 | 88 | 1012.9 |
| 20260904020514 | 59 | 154 | 0.0 | 0.0 | 0.00 | 0.09 | 0.09 | 87 | 1013.0 |
| 20260904020009 | 59 | 162 | 0.0 | 0.0 | 0.00 | 0.09 | 0.09 | 86 | 1012.9 |
| 20260904015503 | 60 | 149 | 0.0 | 2.0 | 0.07 | 0.09 | 0.09 | 85 | 1012.8 |
| 20260904015002 | 60 | 150 | 0.0 | 0.0 | 0.00 | 0.08 | 0.08 | 83 | 1012.7 |
| 20260904014456 | 60 | 130 | 0.0 | 0.0 | 0.00 | 0.08 | 0.08 | 82 | 1012.8 |
| 20260904013953 | 60 | 157 | 0.0 | 0.0 | 0.00 | 0.08 | 0.08 | 82 | 1012.8 |
| 20260904013448 | 61 | 86 | 2.0 | 5.0 | 0.00 | 0.08 | 0.08 | 80 | 1012.7 |
| 20260904012945 | 62 | 136 | 0.0 | 0.0 | 0.00 | 0.08 | 0.08 | 78 | 1012.7 |
| 20260904012444 | 63 | 143 | 0.0 | 0.0 | 0.00 | 0.08 | 0.08 | 72 | 1013.1 |
| 20260904011938 | 64 | 162 | 0.0 | 2.0 | 0.00 | 0.08 | 0.08 | 69 | 1012.9 |
| 20260904011433 | 64 | 178 | 2.0 | 2.0 | 0.00 | 0.08 | 0.08 | 66 | 1012.9 |
| 20260904010929 | 64 | 197 | 2.0 | 2.0 | 0.00 | 0.08 | 0.08 | 65 | 1012.8 |
| 20260904010425 | 65 | 183 | 2.0 | 5.0 | 0.00 | 0.08 | 0.08 | 63 | 1012.6 |
| 20260904005920 | 65 | 203 | 3.0 | 5.0 | 0.00 | 0.08 | 0.08 | 62 | 1012.8 |
| 20260904005416 | 65 | 215 | 2.0 | 3.0 | 0.00 | 0.08 | 0.08 | 62 | 1012.6 |
| 20260904004915 | 66 | 227 | 4.0 | 7.0 | 0.00 | 0.08 | 0.08 | 61 | 1012.6 |
| 20260904004412 | 67 | 175 | 4.0 | 5.0 | 0.00 | 0.08 | 0.08 | 60 | 1012.7 |
| 20260904003912 | 66 | 164 | 5.0 | 9.0 | 0.00 | 0.08 | 0.08 | 62 | 1012.4 |
| 20260904003403 | 66 | 191 | 1.0 | 3.0 | 0.00 | 0.08 | 0.08 | 65 | 1012.6 |
| 20260904002903 | 68 | 226 | 7.0 | 8.0 | 0.00 | 0.08 | 0.08 | 61 | 1012.3 |
| 20260904002400 | 68 | 188 | 1.0 | 5.0 | 0.00 | 0.08 | 0.08 | 60 | 1012.3 |
| 20260904001858 | 68 | 177 | 1.0 | 3.0 | 0.00 | 0.08 | 0.08 | 58 | 1012.5 |
| 20260904001354 | 67 | 248 | 3.0 | 5.0 | 0.00 | 0.08 | 0.08 | 60 | 1012.5 |
| 20260904000849 | 67 | 209 | 7.0 | 9.0 | 0.00 | 0.08 | 0.08 | 57 | 1012.3 |
| 20260904000348 | 69 | 174 | 6.0 | 8.0 | 0.00 | 0.08 | 0.08 | 53 | 1012.5 |
| 20260903235848 | 70 | 151 | 3.0 | 3.0 | 0.00 | 0.08 | 0.08 | 52 | 1012.4 |
| 20260903235345 | 68 | 199 | 2.0 | 3.0 | 0.00 | 0.08 | 0.08 | 53 | 1012.4 |
| 20260903234844 | 69 | 184 | 2.0 | 5.0 | 0.00 | 0.08 | 0.08 | 51 | 1012.3 |
| 20260903234340 | 69 | 160 | 2.0 | 5.0 | 0.00 | 0.08 | 0.08 | 51 | 1012.3 |
| 20260903233836 | 68 | 158 | 3.0 | 5.0 | 0.00 | 0.08 | 0.08 | 53 | 1012.2 |
| 20260903233332 | 69 | 154 | 6.0 | 8.0 | 0.00 | 0.08 | 0.08 | 52 | 1012.3 |
| 20260903232831 | 69 | 184 | 3.0 | 6.0 | 0.00 | 0.08 | 0.08 | 51 | 1012.3 |
| 20260903232327 | 70 | 195 | 3.0 | 5.0 | 0.00 | 0.08 | 0.08 | 52 | 1012.2 |
| 20260903231826 | 69 | 206 | 4.0 | 5.0 | 0.00 | 0.08 | 0.08 | 51 | 1012.4 |
| 20260903231321 | 69 | 199 | 5.0 | 9.0 | 0.00 | 0.08 | 0.08 | 52 | 1012.0 |
| 20260903230817 | 70 | 204 | 5.0 | 8.0 | 0.00 | 0.08 | 0.08 | 51 | 1012.2 |
| 20260903230312 | 69 | 145 | 3.0 | 3.0 | 0.00 | 0.08 | 0.08 | 53 | 1012.3 |
| 20260903225808 | 69 | 59 | 1.0 | 6.0 | 0.00 | 0.08 | 0.08 | 52 | 1012.5 |
| 20260903225306 | 68 | 214 | 3.0 | 5.0 | 0.00 | 0.08 | 0.08 | 55 | 1012.3 |
| 20260903224801 | 69 | 51 | 4.0 | 6.0 | 0.00 | 0.08 | 0.08 | 54 | 1012.2 |
| 20260903224256 | 68 | 160 | 0.0 | 2.0 | 0.00 | 0.08 | 0.08 | 56 | 1012.3 |
| 20260903223751 | 67 | 161 | 0.0 | 2.0 | 0.00 | 0.08 | 0.08 | 57 | 1012.4 |
| 20260903223250 | 67 | 242 | 3.0 | 6.0 | 0.00 | 0.08 | 0.08 | 56 | 1012.7 |
| 20260903222745 | 67 | 157 | 1.0 | 3.0 | 0.00 | 0.08 | 0.08 | 59 | 1012.5 |
| 20260903222244 | 66 | 191 | 4.0 | 5.0 | 0.00 | 0.08 | 0.08 | 59 | 1012.5 |
| 20260903221739 | 67 | 191 | 2.0 | 3.0 | 0.00 | 0.08 | 0.08 | 57 | 1012.7 |
| 20260903221238 | 67 | 190 | 3.0 | 5.0 | 0.00 | 0.08 | 0.08 | 56 | 1012.7 |
| 20260903220736 | 67 | 198 | 3.0 | 3.0 | 0.00 | 0.08 | 0.08 | 59 | 1012.5 |
| 20260903220231 | 67 | 187 | 3.0 | 3.0 | 0.00 | 0.08 | 0.08 | 57 | 1012.5 |
| 20260903215730 | 66 | 210 | 1.0 | 3.0 | 0.00 | 0.08 | 0.08 | 62 | 1012.7 |
| 20260903215226 | 66 | 176 | 2.0 | 3.0 | 0.00 | 0.08 | 0.08 | 60 | 1012.7 |
| 20260903214723 | 66 | 224 | 4.0 | 5.0 | 0.00 | 0.08 | 0.08 | 61 | 1012.6 |
| 20260903214220 | 66 | 196 | 4.0 | 6.0 | 0.00 | 0.08 | 0.08 | 61 | 1012.6 |
| 20260903213714 | 65 | 140 | 0.0 | 1.0 | 0.00 | 0.08 | 0.08 | 63 | 1012.7 |
| 20260903213210 | 65 | 192 | 3.0 | 3.0 | 0.00 | 0.08 | 0.08 | 64 | 1012.6 |
| 20260903212706 | 65 | 173 | 2.0 | 3.0 | 0.00 | 0.08 | 0.08 | 63 | 1012.7 |
| 20260903212203 | 64 | 170 | 3.0 | 3.0 | 0.00 | 0.08 | 0.08 | 65 | 1012.6 |
| 20260903211701 | 64 | 194 | 2.0 | 2.0 | 0.00 | 0.08 | 0.08 | 66 | 1012.6 |
| 20260903211158 | 64 | 211 | 2.0 | 5.0 | 0.00 | 0.08 | 0.08 | 66 | 1012.8 |
| 20260903210654 | 64 | 211 | 5.0 | 6.0 | 0.00 | 0.08 | 0.08 | 65 | 1012.7 |
| 20260903210149 | 64 | 208 | 3.0 | 7.0 | 0.00 | 0.08 | 0.08 | 65 | 1012.5 |